Tracking 28052 objects as of 25-Sep-2023
HD Live streaming from Space Station
objects crossing your sky now

EXPLORER 11

Track EXPLORER 11 now!
10-day predictions
EXPLORER 11 is classified as:


NORAD ID: 107
Int'l Code: 1961-013A
Perigee: 473.0 km
Apogee: 1,240.7 km
Inclination: 28.8 °
Period: 101.9 minutes
Semi major axis: 7227 km
RCS: 0.4708 m2 (medium)
Launch date: April 27, 1961
Source: United States (US)
Launch site: AIR FORCE EASTERN TEST RANGE (AFETR)
Your satellite tracking list
Your tracking list is empty




NASA's NSSDC Master Catalog

Two Line Element Set (TLE):
1 00107U 61013A   23267.38864411  .00004681  00000-0  59474-3 0  9995
2 00107  28.7903 266.5160 0531076 239.5748 115.1316 14.12818370134893
Source of the keplerian elements: AFSPC